Location: *
(33.6842°N, 117.7925°W)
Time: 02:21:58
(UTC+00:00)

Cosmos 1674 - Pass Details

Date: 21 October 2019
Orbit: 496 x 518 km, 82.5° (Epoch: 15 November)

Event Time Altitude Azimuth Distance (km) Brightness Sun altitude
Rises 12:55:59 0° 191° (S) 2,567 6.2 -14.2°
Reaches altitude 10° 12:58:06 10° 194° (SSW) 1,688 5.2 -13.7°
Maximum altitude 13:01:46 67° 277° (W) 541 2.5 -13.0°
Drops below altitude 10° 13:05:28 10° 1° (N) 1,701 5.3 -12.2°
Sets 13:07:36 0° 4° (N) 2,589 6.2 -11.7°
